Погода в Щирце

Украина / Львовская область     49°39′04″N   23°51′21″E
темп.,
°C
ветер,
м/с
пор.,
м/с
влажн.,
%
обл.,
%
осадки,
мм/ч
давл.,
гПа
погр.,
м
20 сентября, пн
пн2000:00+6зсз5993100 0.2 1014952
03:00+6зсз5993100 0.3 1014721
06:00+6сз4994100 0.0 1014711
09:00+6зсз5794100 0.1 1016889
12:00+7зсз5788100 0.1 1016794
15:00+6зсз5889100 0.3 1017796
18:00+6зсз5989100 0.1 1018713
21:00+5зсз5990100 0.2 1020713
21 сентября, вт
вт2100:00+5сз5991100 0.1 1021679
03:00+5зсз51091100 0.1 1022612
06:00+4з51291100 0.0 1022342
09:00+6зсз512807 0.0 1023595
12:00+10сз8106489 0.0 10231484
15:00+10зсз7117073 0.1 10231424
18:00+9зсз61063100 0.0 1024960
21:00+8ссз3677100 0.0 1025303
22 сентября, ср
ср2200:00+7з2476100 0.0 1024105
03:00+7з4980100 0.0 1023321
06:00+6зсз41085100 0.0 1022358
09:00+6зсз4894100 0.7 1021405
12:00+9сз5779100 0.8 10211009
15:00+11сз577497 2.1 10201107
18:00+10зсз598173 1.1 1020532
21:00+7сз3591100 1.6 1021114
23 сентября, чт
чт2300:00+7зсз3695100 0.3 1020181
03:00+7зсз3697100 0.6 1020195
06:00+5зсз369896 0.2 1020154
09:00+7зсз4794100 0.2 1020352
12:00+9зсз4687100 0.1 1019616
15:00+12зсз577187 0.5 10171195
18:00+12з367878 0.2 1016344
21:00+10юз3787100 0.4 1016186
24 сентября, пт
пт2400:00+8ююз3987100 0.0 1014177
03:00+8юз51379100 0.0 1013461
06:00+10юз71567100 0.0 1009583
09:00+11юз91866100 0.0 1008705
12:00+10зюз81689100 1.1 1010726
15:00+12зюз91477100 1.3 10101179
18:00+12з71276100 0.1 10111109
21:00+11зсз51266100 0.1 1013932